Weather History for Russellville, AR

Change the Weather History Date:

Wednesday, April 24, 2013

  Actual Average (KHOT) Record (KHOT)
Temperature  
Mean Temperature 51 °F -  
Max Temperature 61 °F 77 °F 90 °F (1949)
Min Temperature 42 °F 51 °F 39 °F (2005)
Degree Days  
Heating Degree Days 14    
Growing Degree Days 1 (Base 50)    
Moisture  
Dew Point 37 °F    
Average Humidity 70    
Maximum Humidity 92    
Minimum Humidity 36    
Precipitation  
Precipitation 0.38 in - - ()
Sea Level Pressure  
Sea Level Pressure 30.19 in    
Wind  
Wind Speed 8 mph (NW)    
Max Wind Speed 14 mph    
Max Gust Speed 20 mph    
Visibility 9 miles    
Events Rain , Thunderstorm    
Averages and records for this station are not official NWS values.
T = Trace of Precipitation, MM = Missing Value Source: NWS Daily Summary

Daily Weather History Graph

Daily Weather History Graph

Search for Another Location

Airport:

Trip Planner

Search our weather history database for the weather conditions in past years. The results will help you decide how hot, cold, wet, or windy it might be!

Date:

Astronomy

Apr. 24, 2013 Rise Set
Actual Time 6:28 AM CDT 7:52 PM CDT
Civil Twilight 6:01 AM CDT 8:19 PM CDT
Nautical Twilight 5:30 AM CDT 8:51 PM CDT
Astronomical Twilight 4:56 AM CDT 9:25 PM CDT
Moon 6:57 PM CDT (4/24) 5:30 AM CDT (4/24)
Length of Visible Light 14h 17m
Length of Day
13h 24m
Waxing Gibbous, 98% of the Moon is Illuminated
Apr 24
Waxing Gibbous
Apr 25
Full
May 2
Last Quarter
May 9
New
May 17
First Quarter

Hourly Weather History & Observations

Time (CDT) Temp. Windchill Dew Point Humidity Pressure Visibility Wind Dir Wind Speed Gust Speed Precip Events Conditions
12:53 AM 46.9 °F - 39.9 °F 77% 30.04 in 10.0 mi NW 9.2 mph - N/A   Overcast
1:53 AM 45.0 °F 38.5 °F 39.0 °F 80% 30.06 in 10.0 mi NW 13.8 mph 19.6 mph N/A   Overcast
2:23 AM 44.6 °F 39.7 °F 37.4 °F 76% 30.06 in 9.0 mi NW 9.2 mph - 0.01 in Rain , Thunderstorm Light Rain
2:43 AM 42.8 °F 37.0 °F 39.2 °F 87% 30.10 in 2.5 mi WNW 10.4 mph - 0.16 in Rain , Thunderstorm Heavy Rain
2:47 AM 42.8 °F 38.6 °F 39.2 °F 87% 30.07 in 3.0 mi NW 6.9 mph 16.1 mph 0.18 in Rain Heavy Rain
2:53 AM 42.1 °F 36.1 °F 39.0 °F 89% 30.07 in 3.0 mi WNW 10.4 mph - 0.21 in Rain , Thunderstorm Heavy Rain
3:49 AM 42.8 °F 39.3 °F 39.2 °F 87% 30.11 in 7.0 mi NW 5.8 mph - 0.16 in Rain , Thunderstorm Rain
3:53 AM 42.1 °F 37.7 °F 39.0 °F 89% 30.10 in 6.0 mi NW 6.9 mph - 0.17 in Rain , Thunderstorm Rain
4:05 AM 42.8 °F 39.3 °F 39.2 °F 87% 30.13 in 4.0 mi West 5.8 mph - 0.04 in Rain Heavy Rain
5:53 AM 43.0 °F 38.2 °F 37.9 °F 82% 30.17 in 10.0 mi NNW 8.1 mph - N/A   Overcast
6:53 AM 42.1 °F 37.1 °F 37.0 °F 82% 30.19 in 10.0 mi NW 8.1 mph - N/A   Overcast
7:53 AM 43.0 °F 37.7 °F 36.0 °F 76% 30.21 in 10.0 mi NNW 9.2 mph - N/A   Overcast
8:53 AM 44.1 °F 38.6 °F 36.0 °F 73% 30.22 in 10.0 mi NW 10.4 mph - N/A   Overcast
9:45 AM 46.4 °F 42.4 °F 35.6 °F 66% 30.24 in 10.0 mi NNW 8.1 mph 17.3 mph N/A   Overcast
9:53 AM 48.0 °F - 35.1 °F 61% 30.23 in 10.0 mi North 12.7 mph - N/A   Overcast
10:17 AM 46.4 °F 41.5 °F 35.6 °F 66% 30.24 in 10.0 mi NNW 10.4 mph - N/A   Overcast
10:33 AM 48.2 °F - 35.6 °F 62% 30.25 in 10.0 mi NNW 8.1 mph - N/A   Scattered Clouds
10:53 AM 48.0 °F - 34.0 °F 58% 30.25 in 10.0 mi WNW 10.4 mph - N/A   Mostly Cloudy
11:53 AM 51.1 °F - 34.0 °F 52% 30.26 in 10.0 mi NW 5.8 mph - N/A   Partly Cloudy
12:53 PM 55.0 °F - 34.0 °F 45% 30.25 in 10.0 mi North 8.1 mph - N/A   Clear
1:53 PM 55.0 °F - 36.0 °F 49% 30.24 in 10.0 mi WNW 6.9 mph - N/A   Clear
2:53 PM 57.0 °F - 36.0 °F 45% 30.23 in 10.0 mi WNW 9.2 mph - N/A   Clear
3:53 PM 57.9 °F - 35.1 °F 42% 30.22 in 10.0 mi West 5.8 mph - N/A   Clear
4:53 PM 60.1 °F - 33.1 °F 36% 30.20 in 10.0 mi Variable 3.5 mph - N/A   Clear
5:53 PM 60.1 °F - 34.0 °F 38% 30.20 in 10.0 mi Calm Calm - N/A   Clear
6:53 PM 59.0 °F - 34.0 °F 39% 30.21 in 10.0 mi Calm Calm - N/A   Clear
7:53 PM 51.1 °F - 44.1 °F 77% 30.22 in 10.0 mi Calm Calm - N/A   Clear
8:53 PM 46.9 °F - 41.0 °F 80% 30.25 in 10.0 mi Calm Calm - N/A   Clear
9:53 PM 46.0 °F - 42.1 °F 86% 30.28 in 10.0 mi Calm Calm - N/A   Clear
10:53 PM 43.0 °F - 39.9 °F 89% 30.29 in 10.0 mi Calm Calm - N/A   Clear
11:53 PM 42.1 °F - 39.9 °F 92% 30.30 in 10.0 mi Calm Calm - N/A   Clear